Girls NYS Top-Ranking
Show details for 200 Medley Relay[</B><FONT SIZE="2" COLOR="#006600" FACE="Arial">] ( 1st Place, Auto: 1:52.35 )[</FONT>]200 Medley Relay ( 1st Place, Auto: 1:52.35 )
Show details for 200 Freestyle[</B><FONT SIZE="2" COLOR="#006600" FACE="Arial">] ( Auto: 1:57.24 )[</FONT>]200 Freestyle ( Auto: 1:57.24 )
Show details for 200 Individual Medley[</B><FONT SIZE="2" COLOR="#006600" FACE="Arial">] ( Auto: 2:12.84 )[</FONT>]200 Individual Medley ( Auto: 2:12.84 )
Show details for 50 Freestyle[</B><FONT SIZE="2" COLOR="#006600" FACE="Arial">] ( Auto: 24.84 )[</FONT>]50 Freestyle ( Auto: 24.84 )
Show details for Diving(6)[</B><FONT SIZE="2" COLOR="#006600" FACE="Arial">] ( Auto: 440.00 )[</FONT>]Diving(6) ( Auto: 440.00 )
Show details for 100 Butterfly[</B><FONT SIZE="2" COLOR="#006600" FACE="Arial">] ( Auto: 1:00.02 )[</FONT>]100 Butterfly ( Auto: 1:00.02 )
Show details for 100 Freestyle[</B><FONT SIZE="2" COLOR="#006600" FACE="Arial">] ( Auto: 54.36 )[</FONT>]100 Freestyle ( Auto: 54.36 )
Show details for 500 Freestyle[</B><FONT SIZE="2" COLOR="#006600" FACE="Arial">] ( Auto: 5:14.65 )[</FONT>]500 Freestyle ( Auto: 5:14.65 )
Show details for 200 Freestyle Relay[</B><FONT SIZE="2" COLOR="#006600" FACE="Arial">] ( 1st Place, Auto: 1:41.69 )[</FONT>]200 Freestyle Relay ( 1st Place, Auto: 1:41.69 )
Show details for 100 Backstroke[</B><FONT SIZE="2" COLOR="#006600" FACE="Arial">] ( Auto: 1:00.42 )[</FONT>]100 Backstroke ( Auto: 1:00.42 )
Hide details for 100 Breaststroke[</B><FONT SIZE="2" COLOR="#006600" FACE="Arial">] ( Auto: 1:08.60 )[</FONT>]100 Breaststroke ( Auto: 1:08.60 )
1 Denise PhelanSR 1:03.71*Northport-Commack 09/14/2021XI (145)
2 Mackenzie GulaSO 1:07.91*Pine Bush 09/11/2021IX (117)
3 Lindsey RiceSR 1:08.18*Chenango Valley 09/18/2021IV (116)
4 Kathryn MontefuscoJR 1:09.40 Huntington-Walt Whitman 09/14/2021XI (109)
5 Megan HuSO 1:09.51 Syosset 09/17/2021VIII (108)
6 Sabrina JohnsonSR 1:09.85 Horace Greeley 09/13/2021I (106)
7 Morgan KingsleySR 1:09.95 Fayetteville Manlius 09/02/2021III (105)
8 Ava Grace MontiJR 1:09.99 Sachem East 09/14/2021XI (105)
9 Alexa von HoltzJR 1:10.10 Mexico Academy 09/14/2021III (105)
10 Sophia Gao8 1:10.43 Shenendehowa 09/08/2021II (103)
11 Angelina McKaneSO 1:10.44 Corning 09/14/2021IV (103)
12 Madison DomingerSO 1:10.66 Hauppauge-Smithtown 09/14/2021XI (101)
13 Makenna O'BrienSO 1:10.68 Northport-Commack 09/10/2021XI (101)
14 Sadie DeGeorgeFR 1:11.03 Pine Bush 09/14/2021IX (99)
14 Samantha WatsonSR 1:11.03 Sachem North 09/17/2021XI (99)
16 Katie YeeJR 1:11.28 Herricks 09/18/2021VIII (98)
17 Emma Bogdanowicz-WilsonSR 1:11.31 Schenectady-South Colonie 09/15/2021II (98)
18 Kendall GilbertSO 1:11.49 Burnt Hills-Scotia 09/08/2021II (97)
19 Ava OlsianJR 1:11.58 Binghamton 09/07/2021IV (96)
20 Lily GriffinFR 1:11.63 East Hampton 09/17/2021XI (96)
21 Gwen ListerJR 1:11.78 Jamesville DeWitt 09/17/2021III (95)
22 Grace NadeckiSR 1:12.08 Horace Greeley 09/20/2021I (94)
23 Ella GuilfoilSR 1:12.10 Fairport 09/14/2021V (93)
24 Scarlett UlatowskiSR 1:12.13 Victor-Bloomfield 09/16/2021V (93)
25 Nicole GerosaJR 1:12.19 Briarcliff-Pville-Valh-WLake 09/20/2021I (93)
26 Florence MilletSR 1:12.69 Sleepy-Hastings-Edgemont-Irvin 09/14/2021I (90)
27 Subeen Park8 1:12.84 New Hartford 09/09/2021III (89)
28 Cadence O'DonnellSR 1:12.92 Syosset 09/17/2021VIII (89)
29 Annabel SmithFR 1:13.01 Fox Lane 09/13/2021I (89)
30 Iala CropperJR 1:13.09 Pittsford 09/18/2021V (88)
31 Callie HigginsJR 1:13.13 Byram Hills 09/17/2021I (88)
32 Hannah GentileSR 1:13.19 Greece 09/16/2021V (88)
33 Emily ThomasJR 1:13.21 Greece 09/21/2021V (87)
34 Jade O’NeillSO 1:13.24 Clarkstown 09/14/2021I (87)
35 Jillian FerrieSO 1:13.30 Saratoga Springs 09/15/2021II (87)
35 Charlotte BrawerSO 1:13.30 Ursuline 09/20/2021I (87)
37 Grace Cullen8 1:13.42 Sayville-Bayport-BP 09/14/2021XI (86)
37 Ellie TaraganoJR 1:13.42 Clarkstown 09/20/2021I (86)
39 Vanessa TurnerSR 1:13.55 Corning 08/31/2021IV (86)
39 Fayth Goodspeed8 1:13.55 Niskayuna 09/08/2021II (86)
Show details for 400 Freestyle Relay[</B><FONT SIZE="2" COLOR="#006600" FACE="Arial">] ( 1st Place, Auto: 3:42.73 )[</FONT>]400 Freestyle Relay ( 1st Place, Auto: 3:42.73 )
Show details for Diving(11)[</B><FONT SIZE="2" COLOR="#006600" FACE="Arial">] ( Auto: 440.00 )[</FONT>]Diving(11) ( Auto: 440.00 )

Brought to you by Computer Aide, Inc.